CW3560 Weather Reports


time (UTC)temp
F
wind
direction
speed
knots
gust
knots
rain 1hr
in
rain 24hr
in
rain mn
in
humidity
%
barometer
mb
20260504193026 68 196 5.2 11.3 0.00 0.00 0.00 33 1005.2
20260504191526 68 211 2.6 14.8 0.00 0.00 0.00 33 1005.2
20260504190021 68 180 2.6 12.2 0.00 0.00 0.00 33 1005.2
20260504184523 68 176 2.6 16.5 0.00 0.00 0.00 34 1005.5
20260504183018 67 360 3.5 10.4 0.00 0.00 0.00 34 1005.5
20260504181518 68 200 2.6 7.0 0.00 0.00 0.00 34 1005.5
20260504180019 67 155 0.9 13.0 0.00 0.00 0.00 34 1005.5
20260504174514 65 212 4.3 12.2 0.00 0.00 0.00 34 1005.6
20260504173018 66 57 3.5 9.6 0.00 0.00 0.00 34 1005.7
20260504171512 66 59 3.5 13.0 0.00 0.00 0.00 34 1005.7
20260504081538 39 140 0.0 0.9 0.00 0.00 0.00 39 1008.7
20260504050016 32 144 0.0 1.7 0.00 0.00 0.00 39 1008.7
20260504044514 31 144 0.0 0.9 0.00 0.00 0.00 39 1008.8
20260504043013 31 177 0.0 0.0 0.00 0.00 0.00 39 1008.8
20260504041511 31 177 0.0 0.9 0.00 0.00 0.00 39 1008.8
20260504040010 31 177 0.0 0.0 0.00 0.00 0.00 39 1008.8
20260504034508 31 177 0.0 0.9 0.00 0.00 0.00 39 1008.7
20260504033006 32 233 0.0 0.0 0.00 0.00 0.00 39 1008.7
20260504031505 33 234 0.0 0.0 0.00 0.00 0.00 39 1008.6
20260504030003 33 234 0.0 0.9 0.00 0.00 0.00 38 1008.5
20260504024502 34 233 0.0 0.0 0.00 0.00 0.00 38 1008.6
20260504023101 34 234 0.0 0.0 0.00 0.00 0.00 38 1008.7
20260504021610 35 234 0.0 0.0 0.00 0.00 0.00 38 1008.6
20260504020105 35 233 0.0 0.0 0.00 0.00 0.00 38 1008.6
20260504014554 36 233 0.0 0.0 0.00 0.00 0.00 38 1008.5
20260504013056 37 234 0.0 0.9 0.00 0.00 0.00 38 1008.3
20260504011554 39 234 0.0 0.0 0.00 0.00 0.00 37 1008.2
20260504010052 40 234 0.0 0.9 0.00 0.00 0.00 37 1008.1
20260504004548 41 233 0.0 0.0 0.00 0.00 0.00 37 1008.0
20260504003049 43 234 0.0 0.0 0.00 0.00 0.00 36 1007.8
20260504001650 44 234 0.0 0.0 0.00 0.00 0.00 36 1007.7
20260504000046 46 234 0.0 0.9 0.00 0.00 0.00 35 1007.5
20260503234546 46 233 0.0 1.7 0.00 0.00 0.00 35 1007.3
20260503233045 47 269 1.7 7.0 0.00 0.00 0.00 35 1007.1
20260503231550 47 260 1.7 11.3 0.00 0.00 0.00 35 1007.1
20260503230044 48 229 1.7 7.8 0.00 0.00 0.00 35 1007.0
20260503224548 48 218 2.6 6.1 0.00 0.00 0.00 34 1007.1
20260503223044 48 234 3.5 13.9 0.00 0.00 0.00 35 1007.0
20260503221542 48 232 3.5 14.8 0.00 0.00 0.00 35 1006.8
20260503220041 49 246 0.9 10.4 0.00 0.00 0.00 35 1006.7
20260503214551 49 223 1.7 10.4 0.00 0.00 0.00 34 1006.6
20260503213104 49 207 3.5 11.3 0.00 0.00 0.00 34 1006.6
20260503211600 49 246 4.3 9.6 0.00 0.00 0.00 34 1006.5
20260503210039 49 298 3.5 10.4 0.00 0.00 0.00 34 1006.4
20260503210007 49 217 5.2 10.4 0.00 0.00 0.00 34 1006.3
20260503204557 50 276 4.3 8.7 0.00 0.00 0.00 34 1006.3
20260503203040 49 265 0.9 10.4 0.00 0.00 0.00 34 1006.1
20260503201538 49 281 2.6 9.6 0.00 0.00 0.00 34 1006.1
20260503200036 49 226 1.7 10.4 0.00 0.00 0.00 34 1006.1
20260503194535 48 289 4.3 8.7 0.00 0.00 0.00 34 1006.2